PAGEOS 1 DEB, 2256

Orbit data source: Space-Track

PAGEOS 1 DEB, 2256 is space debris in LEO originally from a launch on Fri, 24 Jun 1966 UTC launched from the Air Force Western Test Range (AFWTR). Debris objects in space refer to the collection of defunct objects orbiting the Earth. Examples of debris include non-operational satellites, rocket bodies, and fragments generated from explosions, collisions, or faulty payload assembly.

Loading next visibility...
Identifier
2256, 1966-056C
Orbit
LEO
Country
Flag of USUS
Related business
Manufacturer
Goodyear
Mission
Spacecraft
Bus & Motor
ECHO CANISTER, Unknown motor
Mass
9 kg wet, 9 kg dry
Launch date (UTC)
1966-06-24 (60 years ago)
Launch vehicle
Unknown
Launch site
Air Force Western Test Range (AFWTR)
Object type
Payload
Rocket body
Debris
Shape & HBR
Unknown
Radar Cross Section
Large (>1 m²)

Expand to show TLE details & history
Last TLE update: 1 day ago

TLE from 1 day ago
0 PAGEOS 1 DEB
1 02256U 66056C   26125.05023494 -.00000003  00000-0 -54563-2 0  9991
2 02256  86.9333 163.0479 0031496 212.1019 147.7869  7.93540680735052
Epoch: 2026-05-05T01:12Z
TLE epoch observation values (Epoch: 2026-05-05T01:12:20.298Z)
Latitude
0.00002°
Longitude
-77.96732°
Altitude
4,269.753 km
Speed
6.111 km/s
True Right ascension
10h 52m 11s
True Declination
0° 00' 00"
Sunlit
Object was in daylight at epoch
Visualization orbit readout
Latitude
Unknown
Longitude
Unknown
Altitude
Unknown
Speed
Unknown
Apparent Right ascension
Unknown
Apparent Declination
Unknown
Sunlit
N/A
Visualization observer readout
Local Sidereal Time
13:24:24
Azimuth
Unknown
Elevation
Unknown
Doppler factor
Unknown
Orbital elements
Apogee altitude
4,270.751 km
Perigee altitude
4,203.882 km
Semi-major axis
10,615.453 km
Eccentricity
0.00315
Inclination
86.9333°
RAAN
163.0479°
Arg. of periapsis
212.1019°
True anomaly
147.97866°
Mean anomaly
147.7869°
Eccentric anomaly
147.88284°
Mean motion
1.98443 °/min
Orbital period
181.41 mins
BSTAR
-0.0054563
Loading maneuver chart data...
Computing Atmospheric mass density...

Documentation

Showing up to 5 results
|